When you browse on this site, cookies collect data to enhance your experience and personalize the content and advertising you see.
Visit our Privacy Policy to learn more. By continuing to use the site, you agree to this use of cookies and data.
  • In Hungary
  • List of Countries
  • For 7 days
  • Water Temperature
  • Weather Map
  • News
  • Weather Widgets
  • user-avatar
    Login

    Hourly Weather Kovynevo

    Today, 20 January, Monday

    Time Temperature Precipitation Wind Pressure Humidity
    00:00 -1°C° 0 mm 4 mps 752 mmHg 90%
    01:00 -1°C° 0 mm 4 mps 752 mmHg 90%
    02:00 -1°C° 0 mm 4 mps 752 mmHg 91%
    03:00 -1°C° 0 mm 5 mps 752 mmHg 91%
    04:00 -1°C° 0 mm 5 mps 752 mmHg 90%
    05:00 -1°C° 0 mm 5 mps 752 mmHg 90%
    06:00 -1°C° 0 mm 5 mps 752 mmHg 89%
    07:00 -1°C° 0 mm 5 mps 752 mmHg 89%
    08:00 -1°C° 0 mm 4 mps 752 mmHg 88%
    09:00 -1°C° 0 mm 5 mps 752 mmHg 88%
    10:00 -1°C° 0 mm 5 mps 752 mmHg 87%
    11:00 0°C° 0 mm 5 mps 751 mmHg 86%
    12:00 -1°C° 0 mm 5 mps 751 mmHg 87%
    13:00 -1°C° 0 mm 5 mps 752 mmHg 87%
    14:00 -1°C° 0 mm 5 mps 752 mmHg 88%
    15:00 -1°C° 0 mm 5 mps 751 mmHg 87%
    16:00 -1°C° 0 mm 5 mps 751 mmHg 87%
    17:00 -1°C° 0 mm 5 mps 751 mmHg 87%
    18:00 -1°C° 0 mm 5 mps 751 mmHg 86%
    19:00 -2°C° 0 mm 5 mps 750 mmHg 85%
    20:00 -2°C° 0 mm 5 mps 750 mmHg 84%
    21:00 -2°C° 0 mm 5 mps 749 mmHg 85%
    22:00 -2°C° 0 mm 5 mps 749 mmHg 85%
    23:00 -2°C° 0 mm 5 mps 748 mmHg 86%

    Tomorrow, 21 January, Tuesday

    Time Temperature Precipitation Wind Pressure Humidity
    00:00 -2°C° 0 mm 5 mps 748 mmHg 85%
    01:00 -2°C° 0 mm 5 mps 747 mmHg 85%
    02:00 -2°C° 0 mm 5 mps 747 mmHg 85%
    03:00 -3°C° 0 mm 6 mps 746 mmHg 86%
    04:00 -2°C° 0 mm 6 mps 745 mmHg 88%
    05:00 -2°C° 0 mm 7 mps 744 mmHg 89%
    06:00 -2°C° 0.1 mm 7 mps 743 mmHg 90%
    07:00 -1°C° 0.1 mm 7 mps 742 mmHg 90%
    08:00 -1°C° 0.1 mm 6 mps 741 mmHg 90%
    09:00 0°C° 0 mm 7 mps 741 mmHg 91%
    10:00 0°C° 0 mm 7 mps 740 mmHg 91%
    11:00 +2°C° 0 mm 7 mps 740 mmHg 92%
    12:00 +2°C° 0 mm 6 mps 739 mmHg 92%
    13:00 +2°C° 0 mm 6 mps 739 mmHg 92%
    14:00 +2°C° 0 mm 6 mps 738 mmHg 92%
    15:00 +3°C° 0.2 mm 6 mps 737 mmHg 91%
    16:00 +3°C° 0.2 mm 7 mps 736 mmHg 90%
    17:00 +3°C° 0.2 mm 7 mps 735 mmHg 90%
    18:00 +3°C° 0.6 mm 7 mps 734 mmHg 90%
    19:00 +3°C° 0.6 mm 7 mps 734 mmHg 90%
    20:00 +3°C° 0.6 mm 7 mps 734 mmHg 90%
    21:00 +2°C° 0 mm 7 mps 734 mmHg 86%
    22:00 +1°C° 0 mm 6 mps 734 mmHg 81%
    23:00 -2°C° 0 mm 6 mps 735 mmHg 77%

    Day after tomorrow, 22 January, Wednesday

    Time Temperature Precipitation Wind Pressure Humidity
    00:00 -2°C° 0 mm 6 mps 735 mmHg 77%
    01:00 -2°C° 0 mm 5 mps 735 mmHg 77%
    02:00 -4°C° 0 mm 5 mps 735 mmHg 77%
    03:00 -4°C° 0 mm 5 mps 735 mmHg 78%
    04:00 -4°C° 0 mm 5 mps 734 mmHg 79%
    05:00 -4°C° 0 mm 5 mps 734 mmHg 80%
    06:00 -4°C° 0 mm 5 mps 733 mmHg 82%
    07:00 -4°C° 0 mm 5 mps 733 mmHg 83%
    08:00 -4°C° 0 mm 6 mps 732 mmHg 85%
    09:00 -4°C° 0.1 mm 6 mps 732 mmHg 83%
    10:00 -3°C° 0.1 mm 6 mps 731 mmHg 81%
    11:00 -3°C° 0.1 mm 6 mps 731 mmHg 79%
    12:00 -3°C° 0.4 mm 6 mps 731 mmHg 76%
    13:00 -3°C° 0.4 mm 6 mps 730 mmHg 74%
    14:00 -3°C° 0.4 mm 6 mps 730 mmHg 71%
    15:00 -4°C° 0 mm 6 mps 730 mmHg 73%
    16:00 -4°C° 0 mm 6 mps 731 mmHg 75%
    17:00 -5°C° 0 mm 5 mps 731 mmHg 77%
    18:00 -5°C° 0 mm 5 mps 731 mmHg 78%
    19:00 -5°C° 0 mm 5 mps 732 mmHg 79%
    20:00 -5°C° 0 mm 5 mps 732 mmHg 80%
    21:00 -5°C° 0 mm 6 mps 733 mmHg 80%
    22:00 -5°C° 0 mm 6 mps 733 mmHg 79%
    23:00 -5°C° 0 mm 6 mps 734 mmHg 78%

    23 January, Thursday

    Time Temperature Precipitation Wind Pressure Humidity
    00:00 -6°C° 0 mm 6 mps 734 mmHg 76%
    01:00 -8°C° 0 mm 6 mps 735 mmHg 74%
    02:00 -8°C° 0 mm 6 mps 736 mmHg 72%
    03:00 -8°C° 0 mm 6 mps 736 mmHg 73%
    04:00 -9°C° 0 mm 6 mps 737 mmHg 74%
    05:00 -9°C° 0 mm 7 mps 737 mmHg 74%
    06:00 -9°C° 0 mm 6 mps 738 mmHg 70%
    07:00 -9°C° 0 mm 6 mps 738 mmHg 65%
    08:00 -9°C° 0 mm 6 mps 739 mmHg 60%
    09:00 -8°C° 0 mm 6 mps 739 mmHg 60%
    10:00 -8°C° 0 mm 7 mps 740 mmHg 61%
    11:00 -7°C° 0 mm 7 mps 740 mmHg 61%
    12:00 -7°C° 0 mm 7 mps 741 mmHg 61%
    13:00 -6°C° 0 mm 6 mps 741 mmHg 60%
    14:00 -6°C° 0 mm 6 mps 742 mmHg 59%
    15:00 -7°C° 0 mm 5 mps 742 mmHg 61%
    16:00 -7°C° 0 mm 4 mps 743 mmHg 62%
    17:00 -7°C° 0 mm 3 mps 743 mmHg 64%
    18:00 -7°C° 0 mm 3 mps 743 mmHg 64%
    19:00 -7°C° 0 mm 2 mps 744 mmHg 64%
    20:00 -7°C° 0 mm 2 mps 744 mmHg 65%
    21:00 -7°C° 0 mm 2 mps 744 mmHg 66%
    22:00 -6°C° 0 mm 2 mps 744 mmHg 67%
    23:00 -6°C° 0 mm 2 mps 744 mmHg 67%

    24 January, Friday

    Time Temperature Precipitation Wind Pressure Humidity
    00:00 -7°C° 0.1 mm 3 mps 743 mmHg 75%
    01:00 -7°C° 0.1 mm 4 mps 743 mmHg 83%
    02:00 -7°C° 0.1 mm 4 mps 742 mmHg 90%
    03:00 -5°C° 0.1 mm 4 mps 741 mmHg 90%
    04:00 -6°C° 0.1 mm 5 mps 741 mmHg 91%
    05:00 -5°C° 0.1 mm 5 mps 740 mmHg 91%
    06:00 -5°C° 0.1 mm 5 mps 739 mmHg 91%
    07:00 -5°C° 0.1 mm 5 mps 739 mmHg 91%
    08:00 -4°C° 0.1 mm 5 mps 738 mmHg 91%
    09:00 -2°C° 0 mm 5 mps 738 mmHg 93%
    10:00 -1°C° 0 mm 4 mps 738 mmHg 94%
    11:00 0°C° 0 mm 4 mps 738 mmHg 96%
    12:00 0°C° 0.1 mm 4 mps 737 mmHg 96%
    13:00 0°C° 0.1 mm 5 mps 737 mmHg 96%
    14:00 +1°C° 0.1 mm 5 mps 737 mmHg 96%
    15:00 +1°C° 0 mm 5 mps 736 mmHg 96%
    16:00 +1°C° 0 mm 5 mps 736 mmHg 95%
    17:00 +1°C° 0 mm 5 mps 736 mmHg 94%
    18:00 +1°C° 0 mm 5 mps 736 mmHg 94%
    19:00 +1°C° 0 mm 5 mps 736 mmHg 94%
    20:00 +1°C° 0 mm 5 mps 735 mmHg 94%
    21:00 +1°C° 0.1 mm 5 mps 735 mmHg 95%
    22:00 0°C° 0.1 mm 5 mps 735 mmHg 95%
    23:00 -1°C° 0.1 mm 6 mps 735 mmHg 96%

    25 January, Saturday

    Time Temperature Precipitation Wind Pressure Humidity
    00:00 +1°C° 0.3 mm 5 mps 735 mmHg 96%
    01:00 +1°C° 0.3 mm 5 mps 735 mmHg 96%
    02:00 +1°C° 0.3 mm 5 mps 735 mmHg 95%
    03:00 +1°C° 0.2 mm 5 mps 735 mmHg 95%
    04:00 +1°C° 0.2 mm 5 mps 735 mmHg 95%
    05:00 +1°C° 0.2 mm 4 mps 735 mmHg 94%
    06:00 +1°C° 0.1 mm 4 mps 735 mmHg 94%
    07:00 +1°C° 0.1 mm 4 mps 736 mmHg 95%
    08:00 +1°C° 0.1 mm 4 mps 736 mmHg 95%
    09:00 +1°C° 0.2 mm 4 mps 736 mmHg 94%
    10:00 +1°C° 0.2 mm 4 mps 737 mmHg 94%
    11:00 +1°C° 0.2 mm 4 mps 737 mmHg 94%
    12:00 +1°C° 0.1 mm 4 mps 737 mmHg 93%
    13:00 +1°C° 0.1 mm 4 mps 737 mmHg 93%
    14:00 +1°C° 0.1 mm 4 mps 737 mmHg 92%
    15:00 +1°C° 0 mm 4 mps 738 mmHg 92%
    16:00 0°C° 0 mm 4 mps 738 mmHg 91%
    17:00 0°C° 0 mm 3 mps 738 mmHg 91%
    18:00 0°C° 0 mm 3 mps 739 mmHg 92%
    19:00 -1°C° 0 mm 3 mps 739 mmHg 93%
    20:00 -1°C° 0 mm 3 mps 739 mmHg 94%
    21:00 -1°C° 0 mm 3 mps 740 mmHg 95%
    22:00 -1°C° 0 mm 3 mps 740 mmHg 95%
    23:00 -1°C° 0 mm 3 mps 740 mmHg 95%
    Show more